{"data":{"norad_id":64234,"epoch":"2026-05-24T22:55:42.437856Z","epoch_age_seconds":89209,"freshness":"FRESH","line1":"1 64234U 25119B   26144.95535229  .00175307  00000+0  13357-2 0  9997","line2":"2 64234  42.9995 109.9239 0002195 262.3962  97.6656 15.70935428 57239","mean_motion":15.70935428,"eccentricity":0.0002195,"inclination_deg":42.9995,"raan_deg":109.9239,"arg_perigee_deg":262.3962,"mean_anomaly_deg":97.6656,"bstar":0.0013357,"rev_number":5723,"period_min":91.665129854083,"perigee_km":354.74413242043,"apogee_km":357.70051616379,"semimajor_km":6734.3593242921,"source":"CELESTRAK","updated_at":"2026-05-25T13:38:20.350559Z"}}